Hourly Weather Celinowo

Today, 13 June, Sunday

Time Temperature Precipitation Wind Pressure Humidity
00:00 +9°C° 0 mm 5 mps 751 mmHg 89%
01:00 +9°C° 0 mm 6 mps 751 mmHg 89%
02:00 +9°C° 0 mm 6 mps 752 mmHg 90%
03:00 +8°C° 0 mm 6 mps 752 mmHg 90%
04:00 +8°C° 0 mm 7 mps 752 mmHg 90%
05:00 +9°C° 0 mm 7 mps 752 mmHg 86%
06:00 +10°C° 0 mm 7 mps 753 mmHg 82%
07:00 +10°C° 0 mm 8 mps 753 mmHg 79%
08:00 +11°C° 0 mm 8 mps 754 mmHg 75%
09:00 +12°C° 0 mm 8 mps 754 mmHg 71%
10:00 +13°C° 0 mm 8 mps 755 mmHg 67%
11:00 +15°C° 0 mm 8 mps 755 mmHg 65%
12:00 +16°C° 0 mm 8 mps 755 mmHg 63%
13:00 +16°C° 0 mm 8 mps 755 mmHg 62%
14:00 +16°C° 0 mm 8 mps 755 mmHg 62%
15:00 +16°C° 0 mm 7 mps 756 mmHg 62%
16:00 +16°C° 0 mm 7 mps 756 mmHg 63%
17:00 +16°C° 0 mm 7 mps 756 mmHg 65%
18:00 +15°C° 0 mm 6 mps 756 mmHg 68%
19:00 +14°C° 0 mm 6 mps 757 mmHg 71%
20:00 +13°C° 0 mm 5 mps 757 mmHg 75%
21:00 +11°C° 0 mm 4 mps 757 mmHg 80%
22:00 +10°C° 0 mm 3 mps 758 mmHg 84%
23:00 +9°C° 0 mm 3 mps 758 mmHg 86%

Tomorrow, 14 June, Monday

Time Temperature Precipitation Wind Pressure Humidity
00:00 +9°C° 0 mm 3 mps 758 mmHg 88%
01:00 +8°C° 0 mm 3 mps 758 mmHg 90%
02:00 +8°C° 0 mm 3 mps 758 mmHg 91%
03:00 +8°C° 0 mm 2 mps 758 mmHg 92%
04:00 +8°C° 0 mm 2 mps 758 mmHg 93%
05:00 +10°C° 0 mm 2 mps 758 mmHg 87%
06:00 +13°C° 0 mm 2 mps 758 mmHg 82%
07:00 +14°C° 0 mm 2 mps 758 mmHg 77%
08:00 +16°C° 0 mm 2 mps 758 mmHg 71%
09:00 +17°C° 0 mm 2 mps 758 mmHg 66%
10:00 +19°C° 0 mm 3 mps 758 mmHg 60%
11:00 +20°C° 0 mm 3 mps 758 mmHg 58%
12:00 +20°C° 0 mm 3 mps 757 mmHg 55%
13:00 +21°C° 0 mm 3 mps 757 mmHg 52%
14:00 +21°C° 0 mm 2 mps 757 mmHg 52%
15:00 +23°C° 0 mm 2 mps 757 mmHg 52%
16:00 +23°C° 0 mm 2 mps 756 mmHg 51%
17:00 +21°C° 0 mm 2 mps 756 mmHg 57%
18:00 +20°C° 0 mm 2 mps 756 mmHg 63%
19:00 +19°C° 0 mm 2 mps 756 mmHg 69%
20:00 +18°C° 0 mm 2 mps 756 mmHg 71%
21:00 +16°C° 0 mm 2 mps 756 mmHg 73%
22:00 +14°C° 0 mm 3 mps 756 mmHg 75%
23:00 +14°C° 0 mm 3 mps 756 mmHg 75%

Day after tomorrow, 15 June, Tuesday

Time Temperature Precipitation Wind Pressure Humidity
00:00 +14°C° 0 mm 3 mps 756 mmHg 76%
01:00 +13°C° 0 mm 3 mps 756 mmHg 76%
02:00 +13°C° 0 mm 3 mps 756 mmHg 77%
03:00 +13°C° 0 mm 3 mps 756 mmHg 77%
04:00 +13°C° 0 mm 3 mps 756 mmHg 78%
05:00 +14°C° 0 mm 3 mps 756 mmHg 76%
06:00 +16°C° 0 mm 3 mps 756 mmHg 75%
07:00 +17°C° 0 mm 3 mps 756 mmHg 74%
08:00 +19°C° 0 mm 3 mps 755 mmHg 71%
09:00 +20°C° 0 mm 4 mps 755 mmHg 68%
10:00 +22°C° 0 mm 4 mps 755 mmHg 65%
11:00 +22°C° 0.3 mm 4 mps 755 mmHg 68%
12:00 +22°C° 0.3 mm 4 mps 755 mmHg 71%
13:00 +22°C° 0.3 mm 4 mps 755 mmHg 74%
14:00 +21°C° 0.4 mm 4 mps 755 mmHg 78%
15:00 +20°C° 0.4 mm 3 mps 755 mmHg 83%
16:00 +19°C° 0.4 mm 3 mps 755 mmHg 87%
17:00 +19°C° 0 mm 3 mps 755 mmHg 87%
18:00 +19°C° 0 mm 2 mps 755 mmHg 86%
19:00 +20°C° 0 mm 1 mps 755 mmHg 86%
20:00 +17°C° 0 mm 2 mps 755 mmHg 85%
21:00 +14°C° 0 mm 3 mps 755 mmHg 83%
22:00 +13°C° 0 mm 3 mps 756 mmHg 82%
23:00 +12°C° 0 mm 3 mps 756 mmHg 85%

16 June, Wednesday

Time Temperature Precipitation Wind Pressure Humidity
00:00 +12°C° 0 mm 3 mps 756 mmHg 87%
01:00 +11°C° 0 mm 3 mps 756 mmHg 90%
02:00 +11°C° 0 mm 3 mps 756 mmHg 91%
03:00 +10°C° 0 mm 2 mps 757 mmHg 93%
04:00 +10°C° 0 mm 2 mps 757 mmHg 94%
05:00 +13°C° 0 mm 2 mps 757 mmHg 87%
06:00 +14°C° 0 mm 2 mps 757 mmHg 81%
07:00 +15°C° 0 mm 2 mps 757 mmHg 75%
08:00 +17°C° 0 mm 2 mps 757 mmHg 69%
09:00 +19°C° 0 mm 1 mps 758 mmHg 63%
10:00 +21°C° 0 mm 1 mps 758 mmHg 57%
11:00 +21°C° 0 mm 1 mps 758 mmHg 53%
12:00 +22°C° 0 mm 1 mps 757 mmHg 50%
13:00 +23°C° 0 mm 2 mps 757 mmHg 47%
14:00 +23°C° 0 mm 2 mps 757 mmHg 47%
15:00 +23°C° 0 mm 2 mps 757 mmHg 46%
16:00 +23°C° 0 mm 2 mps 757 mmHg 46%
17:00 +21°C° 0 mm 2 mps 757 mmHg 53%
18:00 +20°C° 0 mm 2 mps 757 mmHg 60%
19:00 +19°C° 0 mm 2 mps 757 mmHg 67%
20:00 +18°C° 0 mm 2 mps 757 mmHg 69%
21:00 +16°C° 0 mm 2 mps 757 mmHg 70%
22:00 +15°C° 0 mm 2 mps 757 mmHg 72%
23:00 +13°C° 0 mm 3 mps 757 mmHg 74%

17 June, Thursday

Time Temperature Precipitation Wind Pressure Humidity
00:00 +13°C° 0 mm 3 mps 758 mmHg 76%
01:00 +12°C° 0 mm 3 mps 758 mmHg 78%
02:00 +12°C° 0 mm 3 mps 758 mmHg 79%
03:00 +11°C° 0 mm 3 mps 757 mmHg 80%
04:00 +11°C° 0 mm 3 mps 757 mmHg 82%
05:00 +13°C° 0 mm 3 mps 757 mmHg 78%
06:00 +15°C° 0 mm 4 mps 758 mmHg 73%
07:00 +18°C° 0 mm 4 mps 758 mmHg 69%
08:00 +19°C° 0 mm 4 mps 758 mmHg 63%
09:00 +21°C° 0 mm 4 mps 758 mmHg 58%
10:00 +22°C° 0 mm 5 mps 758 mmHg 52%
11:00 +23°C° 0 mm 5 mps 758 mmHg 50%
12:00 +25°C° 0 mm 5 mps 757 mmHg 48%
13:00 +25°C° 0 mm 5 mps 757 mmHg 46%
14:00 +26°C° 0 mm 5 mps 757 mmHg 47%
15:00 +26°C° 0 mm 5 mps 757 mmHg 49%
16:00 +26°C° 0 mm 5 mps 757 mmHg 50%
17:00 +23°C° 0 mm 4 mps 757 mmHg 57%
18:00 +22°C° 0 mm 4 mps 756 mmHg 65%
19:00 +21°C° 0 mm 3 mps 756 mmHg 72%
20:00 +20°C° 0 mm 3 mps 756 mmHg 75%
21:00 +18°C° 0 mm 3 mps 756 mmHg 79%
22:00 +17°C° 0 mm 4 mps 756 mmHg 82%
23:00 +17°C° 0 mm 3 mps 756 mmHg 85%

18 June, Friday

Time Temperature Precipitation Wind Pressure Humidity
00:00 +16°C° 0 mm 3 mps 756 mmHg 88%
01:00 +16°C° 0 mm 3 mps 756 mmHg 91%
02:00 +16°C° 0 mm 3 mps 756 mmHg 92%
03:00 +14°C° 0 mm 3 mps 756 mmHg 93%
04:00 +14°C° 0 mm 3 mps 756 mmHg 94%
05:00 +17°C° 0 mm 4 mps 756 mmHg 88%
06:00 +19°C° 0 mm 4 mps 756 mmHg 81%
07:00 +21°C° 0 mm 4 mps 756 mmHg 74%
08:00 +22°C° 0 mm 5 mps 756 mmHg 69%
09:00 +25°C° 0 mm 5 mps 756 mmHg 64%
10:00 +26°C° 0 mm 5 mps 756 mmHg 59%
11:00 +27°C° 0 mm 5 mps 756 mmHg 57%
12:00 +28°C° 0 mm 5 mps 755 mmHg 54%
13:00 +29°C° 0 mm 6 mps 755 mmHg 51%
14:00 +29°C° 0 mm 5 mps 755 mmHg 51%
15:00 +29°C° 0 mm 5 mps 755 mmHg 52%
16:00 +29°C° 0 mm 4 mps 755 mmHg 52%
17:00 +28°C° 0 mm 4 mps 755 mmHg 59%
18:00 +26°C° 0 mm 4 mps 755 mmHg 65%
19:00 +25°C° 0 mm 4 mps 755 mmHg 71%
20:00 +23°C° 0 mm 4 mps 755 mmHg 73%
21:00 +21°C° 0 mm 4 mps 755 mmHg 75%
22:00 +20°C° 0 mm 5 mps 755 mmHg 77%
23:00 +20°C° 0 mm 4 mps 756 mmHg 79%
Show more

We Need Your Consent

Meteoprog and our Service Providers may store and access personal data such as cookies, device identifiers or other similar technologies on your device and process such data to personalise content and ads, as well as provide social media features and to analyse the traffic.

  • Store and/or access information on your device

    Cookies, device identifiers or other information can be stored or accessed on your device for the purposes indicated above.

  • Personalised ads and content, ad and content measurement, audience insights, and products development

    Ads and content can be personalised based on a profile. More data can be added to better personalise ads and content. Ad and content performance can be measured. Insights about the audience who saw the ads and content can be derived. Such data can be used to develop or improve user’s experience, systems and software.

By clicking ‘I Agree’ you will allow the use of indicated cookies, device identifiers, web beacons or other similar technologies. Your settings can be changed in the browser on your device.

For certain purposes, legitimate interests may be relied on, rather than consent. You can read more about this in our Privacy and Cookie Policy.